FW9372 Weather Reports


Display with metric or nautical units.
time (UTC)temp
F
wind
direction
speed
MPH
gust
MPH
rain 1hr
in
rain 24hr
in
rain mn
in
humidity
%
barometer
mb
20260503013101 44 0 0.0 0.0 0.00 0.00 0.00 80 1016.8
20260503011616 45 0 0.0 0.0 0.00 0.00 0.00 78 1016.6
20260503010059 46 0 0.0 0.0 0.00 0.00 0.00 77 1016.5
20260503004605 47 0 0.0 0.0 0.00 0.00 0.00 75 1016.4
20260503003058 50 0 0.0 0.0 0.00 0.00 0.00 70 1016.2
20260503001557 52 0 0.0 0.0 0.00 0.00 0.00 64 1016.1
20260503000054 54 0 0.0 0.0 0.00 0.00 0.00 59 1015.9
20260502234556 55 0 0.0 0.0 0.00 0.00 0.00 58 1015.7
20260502233056 54 0 0.0 1.0 0.00 0.00 0.00 59 1015.8
20260502231555 54 0 0.0 0.0 0.00 0.00 0.00 59 1015.6
20260502230058 55 0 0.0 0.0 0.00 0.00 0.00 58 1015.6
20260502224608 55 0 0.0 0.0 0.00 0.00 0.00 61 1015.6
20260502223056 55 0 0.0 0.0 0.00 0.00 0.00 59 1015.7
20260502221558 54 0 0.0 0.0 0.00 0.00 0.00 60 1015.6
20260502220055 54 0 0.0 1.0 0.00 0.00 0.00 60 1015.7
20260502214554 55 0 0.0 0.0 0.00 0.00 0.00 59 1015.6
20260502213111 56 0 0.0 0.0 0.00 0.00 0.00 57 1015.3
20260502211629 56 0 0.0 0.0 0.00 0.00 0.00 57 1015.2
20260502210110 57 0 0.0 0.0 0.00 0.00 0.00 56 1015.3
20260502204559 56 0 0.0 2.0 0.00 0.00 0.00 61 1015.3
20260502203102 57 0 0.0 3.0 0.00 0.00 0.00 59 1015.3
20260502201600 56 0 0.0 0.0 0.00 0.00 0.00 62 1015.4
20260502200057 55 0 0.0 0.0 0.00 0.00 0.00 62 1015.6
20260502194606 56 0 0.0 0.0 0.00 0.00 0.00 61 1015.8
20260502193058 55 0 0.0 0.0 0.00 0.00 0.00 62 1016.0
20260502191601 54 0 0.0 0.0 0.00 0.00 0.00 63 1016.2
20260502190059 53 0 0.0 0.0 0.00 0.00 0.00 65 1016.3
20260502184601 54 0 0.0 0.0 0.00 0.00 0.00 63 1016.4
20260502183108 53 0 0.0 0.0 0.00 0.00 0.00 60 1016.4
20260502181559 53 0 0.0 0.0 0.00 0.00 0.00 61 1016.5
20260502163104 50 0 0.0 0.0 0.00 0.00 0.00 79 1017.1
20260502161601 50 0 0.0 6.0 0.00 0.00 0.00 73 1017.3
20260502151609 51 0 0.0 0.0 0.00 0.00 0.00 72 1016.9
20260502123058 41 0 0.0 0.0 0.00 0.00 0.00 97 1016.1
20260502121557 41 0 0.0 0.0 0.00 0.00 0.00 97 1016.0
20260502114609 39 0 0.0 0.0 0.00 0.00 0.00 97 1015.5
20260502113057 38 0 0.0 0.0 0.00 0.00 0.00 97 1015.5
20260502111559 38 0 0.0 0.0 0.00 0.00 0.00 97 1015.4
20260502104558 36 0 0.0 0.0 0.00 0.00 0.00 96 1015.1
20260502103108 36 0 0.0 0.0 0.00 0.00 0.00 96 1014.8
20260502101626 35 0 0.0 0.0 0.00 0.00 0.00 96 1014.8
20260502090113 35 0 0.0 0.0 0.00 0.00 0.00 96 1015.1
20260502080109 35 0 0.0 0.0 0.00 0.00 0.00 95 1014.9
20260502070137 36 0 0.0 0.0 0.00 0.00 0.00 95 1015.0
20260502064600 36 0 0.0 0.0 0.00 0.00 0.00 94 1015.1
20260502063106 36 0 0.0 0.0 0.00 0.00 0.00 95 1015.3
20260502061609 36 0 0.0 0.0 0.00 0.00 0.00 94 1015.3
20260502054600 37 0 0.0 0.0 0.00 0.00 0.00 94 1015.3
20260502053055 37 0 0.0 0.0 0.00 0.00 0.00 94 1015.5
20260502051627 37 0 0.0 0.0 0.00 0.00 0.00 93 1015.5
20260502050056 37 0 0.0 0.0 0.00 0.00 0.00 93 1015.5
20260502044555 38 0 0.0 0.0 0.00 0.00 0.00 93 1015.4
20260502043104 38 0 0.0 0.0 0.00 0.00 0.00 93 1015.6
20260502041557 38 0 0.0 0.0 0.00 0.00 0.00 92 1015.8
20260502034556 39 0 0.0 0.0 0.00 0.00 0.00 90 1015.8
20260502033100 40 0 0.0 0.0 0.00 0.00 0.00 90 1015.9
20260502031558 40 0 0.0 0.0 0.00 0.00 0.00 89 1016.0
20260502030104 41 0 0.0 0.0 0.00 0.00 0.00 88 1015.9
20260502024600 41 0 0.0 0.0 0.00 0.00 0.00 88 1015.9
20260502023126 42 0 0.0 0.0 0.00 0.00 0.00 85 1015.8
20260502021604 43 0 0.0 0.0 0.00 0.00 0.00 84 1015.8
20260502020112 44 0 0.0 0.0 0.00 0.00 0.00 81 1015.4
20260502014600 45 0 0.0 0.0 0.00 0.00 0.00 78 1015.3